Regional Weather Roundup
Issued by NWS

Home | Current Version | Previous Version | Text Only | Print | Product List | Glossary Off
Versions: 1 2 3 4 5 6 7 8 9 10 11 12 13 14 15 16 17 18 19 20 21 22 23 24 25 26 27 28 29 30 31 32 33 34 35 36 37 38 39 40 41 42 43 44 45 46 47 48 49 50

000
ASUS43 KLOT 280203
RWRIL

ILLINOIS REGIONAL WEATHER ROUNDUP
NATIONAL WEATHER SERVICE CHICAGO/ROMEOVILLE IL
900 PM CDT WED JUL 27 2016

NOTE: "FAIR" INDICATES FEW OR NO CLOUDS BELOW 12,000 FEET WITH NO
SIGNIFICANT WEATHER AND/OR OBSTRUCTIONS TO VISIBILITY.

* THESE STATIONS ARE NOT UNDER NWS QUALITY CONTROL. THEY ALSO MAY NOT
  REPORT WEATHER SUCH AS PRECIPITATION OR FOG.

ILZ001-002-007-009-015-016-024-280300-
NORTHWEST ILLINOIS

CITY           SKY/WX    TMP DP  RH WIND       PRES   REMARKS
MOLINE         CLOUDY    79  71  76 CALM      29.92R HX  82
STERLING*      CLOUDY    75  73  93 CALM      29.94R
SAVANNA*       CLOUDY    75  72  88 E5        29.93R
$$

ILZ003-004-008-010-011-017-018-280300-
NORTH CENTRAL ILLINOIS

CITY           SKY/WX    TMP DP  RH WIND       PRES   REMARKS
ROCKFORD       TSTM      81  68  64 CALM      29.96R HX  84
FREEPORT*      CLOUDY    75  70  86 CALM      29.95S
ROCHELLE*      PTCLDY    73  71  93 SE3       29.95R
DE KALB*       PTCLDY    76  70  83 S3        29.96R
$$

ILZ005-006-012>014-019>023-280300-
NORTHEAST ILLINOIS

CITY           SKY/WX    TMP DP  RH WIND       PRES   REMARKS
CHICAGO-OHARE  CLOUDY    80  62  54 SE8       29.94R HX  81
CHICAGO-MIDWAY MOCLDY    82  62  50 E7        29.94R HX  83
AURORA         CLEAR     77  69  76 CALM      29.95R
LANSING*       MOCLDY    78  67  68 W3        29.95R HX  80
WAUKEGAN       MOCLDY    75  72  90 E7        29.94R
DUPAGE AIRPORT PTCLDY    79  66  64 SW5       29.94R HX  81
KANKAKEE*      CLEAR     76  70  82 CALM      29.95R
WHEELING       CLOUDY    80  63  55 CALM      29.95R HX  81
MORRIS*        CLEAR     74  71  90 CALM      29.94R
NORTHERLY ISL    N/A     76  69  79 S1          N/A
$$

LMZ740>746-280300-
SOUTHERN LAKE MICHIGAN

STATION/POSITION SKY/WX   TEMP    WIND        PRES    VSBY  WAVE
                          AIR SEA DIR/SP/G                  HT/PER
                          (F)     (DEG/KT/KT) (MB)    (MI)  (FT/S)
SOUTHERN BUOY              75 76   80/  6/  8 1012.8          0
WILMETTE HARBOR            75 72  160/  6/  6   N/A           1/ 2
HARRISON CRIB              79     100/ 10/ 11   N/A
BURNHAM HARBOR             76     170/  3/  5   N/A
CALUMET HARBOR                    110/  5/  7   N/A
BURNS HARBOR               82     110/  9/ 15 1013.5S
MICHIGAN CITY              81     100/  4/  6   N/A
MICHIGAN CITY 6N           78 77  100/  4/  6   N/A           1
ST. JOSEPH                 79 79   20/  4/  6 1012.7F         0
$$

ILZ025>027-034>036-040-047-049-050-058-095>099-280300-
WEST-CENTRAL ILLINOIS

CITY           SKY/WX    TMP DP  RH WIND       PRES   REMARKS
QUINCY         TSTM      78  75  90 N12       29.92R HX  81
GALESBURG*     CLEAR     75  71  86 CALM      29.93R
MACOMB*        CLOUDY    75  70  86 SE6       29.94R
JACKSONVILLE*  CLEAR     77  75  91 CALM      29.92R
PITTSFIELD*    PTCLDY    80  78  92 E3        29.92R HX  88
$$

ILZ028>032-037-038-041>044-048-051>054-059>061-280300-
CENTRAL ILLINOIS

CITY           SKY/WX    TMP DP  RH WIND       PRES   REMARKS
PONTIAC        CLOUDY    78  76  95 E3        29.96R HX  80
BLOOMINGTON    MOCLDY    77  70  79 SE3       29.97R
DECATUR        CLEAR     78  73  84 E5        29.93R HX  81
PEORIA         PTCLDY    81  72  74 SE5       29.93R HX  85
LACON*         CLEAR     78  71  80 E6        29.93R HX  80
LINCOLN*       MOCLDY    79  75  90 CALM      29.94R HX  82
SPRINGFIELD    CLEAR     80  74  81 SE5       29.92R HX  85
TAYLORVILLE    PTCLDY    77  74  93 MISG      29.92S
$$

ILZ033-039-045-046-055>057-062-063-280300-
EAST-CENTRAL ILLINOIS

CITY           SKY/WX    TMP DP  RH WIND       PRES   REMARKS
CHAMPAIGN      MOCLDY    75  71  87 E5        29.95R
MATTOON        PTCLDY    77  73  87 SE3       29.93S
PARIS*         CLOUDY    74  74  99 CALM      29.95S
$$

ILZ079-100>102-280300-
SOUTHWEST ILLINOIS

CITY           SKY/WX    TMP DP  RH WIND       PRES   REMARKS
ALTON          MOCLDY    77  75  94 E6        29.91S
BELLEVILLE     CLOUDY    80  80  98 CALM      29.89S HX  90
CAHOKIA*       MOCLDY    80  75  84 S5        29.89F HX  85
SPARTA*        CLOUDY    80  76  89 E5        29.93R HX  86
$$

ILZ064>066-069>071-074>076-080>082-084>086-088>090-092>094-280300-
SOUTH-CENTRAL ILLINOIS

CITY           SKY/WX    TMP DP  RH WIND       PRES   REMARKS
CARBONDALE     CLOUDY    75  71  87 SE6       29.93R
CAIRO*         CLOUDY    76  74  95 E14       29.94R THUNDER
EFFINGHAM*     CLEAR     77  77  99 E3        29.95R
MARION         CLOUDY    75  73  94 SE8       29.95R
MT. VERNON     CLOUDY    75  70  83 MISG      29.93R THUNDER
CENTRALIA*     CLOUDY    81  74  79 SE8       29.92R HX  85
SALEM*         PTCLDY    82  74  77 CALM      29.92R HX  87
METROPOLIS*    TSTM      73  72  95 SE3       29.97R
$$

ILZ067-068-072-073-078-083-087-091-280300-
SOUTHEAST ILLINOIS

CITY           SKY/WX    TMP DP  RH WIND       PRES   REMARKS
LAWRENCEVILLE  CLOUDY    78  74  87 S3        29.94R HX  81
FLORA*         CLOUDY    80  76  90 CALM      29.93R HX  85
FAIRFIELD*     CLOUDY    79  77  94 CALM      29.92R HX  83
HARRISBURG*    CLOUDY    76  74  93 SE9G18    29.94R
ROBINSON*      CLOUDY    77  74  91 CALM      29.94R
CARMI*         CLOUDY    76  73  91 SE7       29.92F
$$

ABBREVIATIONS USED IN REMARKS
   TC - TEMPERATURE IN CELSIUS
  WCI - WIND CHILL INDEX
   HX - HEAT INDEX
  VSB - VISIBILITY
$$





USA.gov is the U.S. government's official web portal to all federal, state and local government web resources and services.